Flag for Poland Weather past 2 weeks in Koszalin, Poland

Now
67 °F

Overcast.


Feels Like: 67 °F
Forecast: 46 / 58 °F
Wind: 3 mph from Southwest

Location: Koszalin

Current Time: Jun 3, 2015 at 3:37:24 AM

Latest Report: Jun 3, 2015 at 2:00 AM


Visibility: 31 mi

Pressure: 29.86 "Hg

Humidity: 56%

Dew point: 51 °F

Location of KoszalinLocation

Historic Weather in Koszalin — Graph

°F

Koszalin temperature yesterday

Maximum temperature yesterday: 71 °F (at 6:00 PM)
Minimum temperature yesterday: 42 °F (at 4:00 AM)
Average temperature yesterday: 58 °F

Past Weeks' High & Low Weather Summary

 TemperatureHumidityPressure
High71 °F (Jun 2, 6:00 PM)95% (May 24, 4:00 AM)30.30 "Hg (May 24, 4:00 AM)
Low40 °F (May 24, 4:00 AM)36% (May 25, 11:00 AM)29.58 "Hg (May 19, 9:00 AM)
Average54 °F71%29.97 "Hg
* Reported May 19 2:00 AM — Jun 3 2:00 AM, Koszalin, Weather by CustomWeather, © 2015

Note: Actual official high and low records may vary slightly from our data, if they occured in-between our weather recording intervals... More about our weather records

Advertising

Koszalin weather history for previous 24 hours

 ConditionsComfort  
Time TempWeatherWind HumidityBarometerVisibility
2:00 AM
Wed, Jun 3
67 °FOvercast.3 mph56%29.86 "Hg31 mi
1:00 AM67 °FPassing clouds.6 mph54%29.86 "Hg31 mi
12:00 AM69 °FOvercast.6 mph51%29.85 "Hg31 mi
10:00 PM
Tue, Jun 2
69 °FOvercast.3 mph50%29.85 "Hg31 mi
9:00 PM70 °FOvercast.6 mph46%29.84 "Hg28 mi
8:00 PM71 °FOvercast.6 mph47%29.84 "Hg25 mi
7:00 PM71 °FOvercast.6 mph45%29.84 "Hg22 mi
6:00 PM71 °FPartly sunny.8 mph41%29.84 "Hg28 mi
5:00 PM70 °FPartly sunny.7 mph45%29.85 "Hg22 mi
4:00 PM68 °FOvercast.7 mph44%29.86 "Hg18 mi
3:00 PM67 °FOvercast.7 mph50%29.87 "Hg18 mi
2:00 PM65 °FOvercast.7 mph55%29.87 "Hg16 mi
1:00 PM64 °FPartly sunny.6 mph63%29.89 "Hg16 mi
12:00 PM61 °FPartly sunny.7 mph70%29.90 "Hg16 mi
11:00 AM57 °FLow clouds.6 mph79%29.93 "Hg17 mi
10:00 AM57 °FScattered clouds.6 mph83%29.92 "Hg18 mi
9:00 AM52 °FOvercast.5 mph82%29.95 "Hg19 mi
8:00 AM48 °FOvercast.3 mph80%29.97 "Hg19 mi
7:00 AM46 °FPartly sunny.2 mph81%29.99 "Hg19 mi
6:00 AM43 °FScattered clouds.3 mph90%30.00 "Hg18 mi
4:00 AM42 °FPassing clouds.3 mph94%30.03 "Hg17 mi
3:00 AM43 °FClear.3 mph94%30.04 "Hg12 mi
Weather by CustomWeather, © 2015

See weather overviewHow to use our weather pages